GW0040 Weather Reports


time (UTC)temp
C
wind
direction
speed
KPH
gust
KPH
rain 1hr
cm
rain 24hr
cm
rain mn
cm
humidity
%
barometer
mb
20260502224726 23 127 1.6 4.8 0.00 0.00 0.00 12 1179.1
20260502224223 23 182 3.2 4.8 0.00 0.00 0.00 11 1179.1
20260502223721 23 182 1.6 3.2 0.00 0.00 0.00 13 1179.2
20260502223218 22 212 6.4 9.7 0.00 0.00 0.00 12 1179.3
20260502222716 22 214 3.2 4.8 0.00 0.00 0.00 12 1179.3
20260502222212 22 185 3.2 9.7 0.00 0.00 0.00 12 1179.2
20260502221708 22 286 6.4 9.7 0.00 0.00 0.00 13 1179.3
20260502221205 22 276 8.0 11.3 0.00 0.00 0.00 12 1179.1
20260502220701 22 81 3.2 4.8 0.00 0.00 0.00 13 1179.3
20260502220158 22 52 6.4 16.1 0.00 0.00 0.00 13 1179.2
20260502215655 22 97 8.0 12.9 0.00 0.00 0.00 12 1179.7
20260502215151 22 68 4.8 9.7 0.00 0.00 0.00 13 1179.7
20260502214649 22 110 11.3 12.9 0.00 0.00 0.00 15 1179.9
20260502214146 22 126 3.2 16.1 0.00 0.00 0.00 14 1179.7
20260502213643 23 197 3.2 9.7 0.00 0.00 0.00 12 1179.6
20260502213140 25 199 8.0 11.3 0.00 0.00 0.00 12 1180.0
20260502212639 22 127 0.0 3.2 0.00 0.00 0.00 14 1180.1
20260502212137 22 72 6.4 11.3 0.00 0.00 0.00 14 1180.2
20260502211632 22 104 1.6 11.3 0.00 0.00 0.00 14 1180.3
20260502211130 22 170 6.4 12.9 0.00 0.00 0.00 15 1180.3
20260502210627 22 161 17.7 20.9 0.00 0.00 0.00 15 1180.0
20260502210124 22 159 8.0 11.3 0.00 0.00 0.00 17 1180.1
20260502205620 22 114 6.4 14.5 0.00 0.00 0.00 17 1180.4
20260502205112 22 139 14.5 16.1 0.00 0.00 0.00 16 1180.5
20260502204608 23 172 4.8 9.7 0.00 0.00 0.00 15 1180.8
20260502204106 22 171 3.2 9.7 0.00 0.00 0.00 16 1180.6
20260502203602 22 232 6.4 9.7 0.00 0.00 0.00 16 1180.8
20260502203055 22 204 11.3 20.9 0.00 0.00 0.00 16 1181.0
20260502202550 22 145 8.0 16.1 0.00 0.00 0.00 16 1180.6
20260502202048 22 186 19.3 20.9 0.00 0.00 0.00 16 1181.1
20260502201544 22 115 3.2 8.0 0.00 0.00 0.00 16 1180.8
20260502201041 21 112 12.9 16.1 0.00 0.00 0.00 17 1181.3
20260502200536 21 121 8.0 16.1 0.00 0.00 0.00 17 1181.0
20260502200035 22 115 12.9 20.9 0.00 0.00 0.00 17 1181.0
20260502195532 22 93 9.7 12.9 0.00 0.00 0.00 16 1181.2
20260502195028 22 87 8.0 14.5 0.00 0.00 0.00 15 1181.3
20260502194525 21 132 8.0 11.3 0.00 0.00 0.00 18 1181.3
20260502194021 21 122 9.7 14.5 0.00 0.00 0.00 16 1181.4
20260502193518 21 145 12.9 16.1 0.00 0.00 0.00 16 1181.2
20260502193015 21 130 6.4 12.9 0.00 0.00 0.00 16 1181.6
20260502192510 21 105 14.5 16.1 0.00 0.00 0.00 17 1181.2
20260502192008 21 195 6.4 9.7 0.00 0.00 0.00 18 1181.7
20260502191505 21 118 6.4 11.3 0.00 0.00 0.00 17 1181.7
20260502191003 21 197 11.3 17.7 0.00 0.00 0.00 17 1181.7
20260502190500 21 182 6.4 8.0 0.00 0.00 0.00 19 1181.9
20260502185956 20 92 6.4 9.7 0.00 0.00 0.00 18 1181.9
20260502185452 21 114 11.3 17.7 0.00 0.00 0.00 20 1182.0
20260502184949 21 101 1.6 4.8 0.00 0.00 0.00 19 1181.9
20260502184444 21 78 9.7 14.5 0.00 0.00 0.00 19 1182.2
20260502183941 20 130 1.6 11.3 0.00 0.00 0.00 21 1182.0
20260502183437 21 135 16.1 22.5 0.00 0.00 0.00 21 1182.1
20260502182932 21 132 6.4 9.7 0.00 0.00 0.00 20 1182.3
20260502182428 20 130 11.3 20.9 0.00 0.00 0.00 21 1182.5
20260502181924 21 161 14.5 17.7 0.00 0.00 0.00 20 1182.6
20260502181423 21 96 14.5 16.1 0.00 0.00 0.00 21 1182.2
20260502180921 20 102 4.8 4.8 0.00 0.00 0.00 20 1182.5
20260502180418 20 134 4.8 20.9 0.00 0.00 0.00 20 1182.7
20260502170336 19 73 17.7 24.1 0.00 0.00 0.00 24 1183.0
20260502164324 18 94 17.7 22.5 0.00 0.00 0.00 25 1183.0
20260502163820 18 59 14.5 22.5 0.00 0.00 0.00 27 1182.9
20260502163316 17 61 12.9 22.5 0.00 0.00 0.00 27 1182.9
20260502162814 17 45 11.3 20.9 0.00 0.00 0.00 28 1183.0
20260502162311 16 78 11.3 17.7 0.00 0.00 0.00 28 1183.2
20260502161808 17 76 19.3 22.5 0.00 0.00 0.00 28 1183.2
20260502161304 16 78 14.5 22.5 0.00 0.00 0.00 30 1183.2
20260502160802 16 84 17.7 17.7 0.00 0.00 0.00 31 1183.2
20260502160301 16 72 19.3 27.4 0.00 0.00 0.00 32 1183.1
20260502152229 14 71 14.5 25.7 0.00 0.00 0.00 32 1183.2
20260502151727 14 74 17.7 22.5 0.00 0.00 0.00 31 1183.4
20260502151224 13 64 12.9 22.5 0.00 0.00 0.00 33 1183.1
20260502150721 13 65 12.9 20.9 0.00 0.00 0.00 34 1183.2
20260502150218 13 62 14.5 22.5 0.00 0.00 0.00 35 1183.4
20260502130607 5 55 14.5 24.1 0.00 0.00 0.00 55 1183.0
20260502130104 6 65 11.3 14.5 0.00 0.00 0.00 53 1182.8
20260502123550 7 15 16.1 22.5 0.00 0.00 0.00 44 1182.6
20260502123046 7 5 14.5 20.9 0.00 0.00 0.00 45 1182.3
20260502122542 7 12 14.5 20.9 0.00 0.00 0.00 45 1182.5
20260502122040 7 21 12.9 20.9 0.00 0.00 0.00 45 1182.2
20260502121537 7 19 16.1 22.5 0.00 0.00 0.00 45 1182.7
20260502121035 7 17 16.1 20.9 0.00 0.00 0.00 45 1182.6
20260502120531 7 32 12.9 22.5 0.00 0.00 0.00 44 1182.8
20260502115526 8 17 14.5 22.5 0.00 0.00 0.00 43 1182.9
20260502115022 8 5 17.7 24.1 0.00 0.00 0.00 42 1182.8
20260502114519 8 8 16.1 22.5 0.00 0.00 0.00 43 1182.5
20260502114015 8 16 17.7 20.9 0.00 0.00 0.00 43 1182.6
20260502113512 8 13 16.1 22.5 0.00 0.00 0.00 42 1182.8
20260502113011 8 9 12.9 20.9 0.00 0.00 0.00 42 1182.7
20260502112508 8 21 11.3 17.7 0.00 0.00 0.00 43 1182.7
20260502112006 8 12 14.5 22.5 0.00 0.00 0.00 41 1182.7
20260502111503 8 20 11.3 17.7 0.00 0.00 0.00 41 1182.7
20260502111000 8 25 16.1 20.9 0.00 0.00 0.00 42 1182.5
20260502110457 8 13 14.5 20.9 0.00 0.00 0.00 42 1182.6
20260502105955 8 28 14.5 20.9 0.00 0.00 0.00 42 1182.6
20260502105452 8 357 14.5 22.5 0.00 0.00 0.00 42 1182.7
20260502104949 8 19 14.5 22.5 0.00 0.00 0.00 44 1182.7
20260502104446 8 14 16.1 20.9 0.00 0.00 0.00 44 1182.3
20260502103944 8 18 11.3 20.9 0.00 0.00 0.00 44 1182.8
20260502103441 8 16 14.5 20.9 0.00 0.00 0.00 43 1182.6
20260502102938 7 12 19.3 22.5 0.00 0.00 0.00 43 1182.9
20260502102435 7 2 11.3 14.5 0.00 0.00 0.00 45 1182.8
20260502101932 7 19 12.9 17.7 0.00 0.00 0.00 46 1182.8
20260502101430 7 17 16.1 17.7 0.00 0.00 0.00 46 1182.8
20260502100928 7 11 11.3 12.9 0.00 0.00 0.00 47 1182.9
20260502100427 7 8 9.7 14.5 0.00 0.00 0.00 46 1182.8
20260502091401 7 13 8.0 11.3 0.00 0.00 0.00 46 1183.0
20260502090859 7 11 9.7 14.5 0.00 0.00 0.00 45 1182.9
20260502090355 7 1 8.0 12.9 0.00 0.00 0.00 46 1182.8
20260502071245 5 359 9.7 12.9 0.00 0.00 0.00 50 1183.2
20260502070743 6 21 9.7 12.9 0.00 0.00 0.00 50 1183.2
20260502070240 6 19 11.3 14.5 0.00 0.00 0.00 47 1183.2
20260502065739 7 13 9.7 12.9 0.00 0.00 0.00 47 1183.1
20260502065237 7 26 9.7 9.7 0.00 0.00 0.00 48 1183.2
20260502064735 7 29 9.7 12.9 0.00 0.00 0.00 48 1183.1
20260502064232 7 25 14.5 16.1 0.00 0.00 0.00 46 1183.1
20260502063730 6 59 9.7 11.3 0.00 0.00 0.00 50 1183.2
20260502063228 6 22 4.8 11.3 0.00 0.00 0.00 49 1183.2
20260502062724 6 16 8.0 12.9 0.00 0.00 0.00 48 1183.0
20260502062222 6 14 8.0 11.3 0.00 0.00 0.00 48 1183.1
20260502061720 6 13 9.7 14.5 0.00 0.00 0.00 48 1182.8
20260502061218 6 21 9.7 12.9 0.00 0.00 0.00 48 1183.0
20260502060712 6 17 9.7 14.5 0.00 0.00 0.00 48 1182.9
20260502060208 6 354 9.7 14.5 0.00 0.00 0.00 48 1182.8
20260502055706 6 10 11.3 12.9 0.00 0.00 0.00 48 1183.0
20260502055204 5 0 8.0 11.3 0.00 0.00 0.00 49 1182.8
20260502054658 5 21 6.4 8.0 0.00 0.00 0.00 51 1183.0
20260502054154 5 8 6.4 9.7 0.00 0.00 0.00 51 1183.1
20260502053652 6 2 9.7 11.3 0.00 0.00 0.00 47 1183.1
20260502053148 7 5 8.0 11.3 0.00 0.00 0.00 45 1183.0
20260502052647 8 17 4.8 11.3 0.00 0.00 0.00 43 1183.1
20260502052144 7 24 9.7 11.3 0.00 0.00 0.00 43 1182.8
20260502051642 7 33 8.0 9.7 0.00 0.00 0.00 47 1183.0
20260502051140 6 28 8.0 11.3 0.00 0.00 0.00 50 1182.9
20260502050636 7 23 8.0 9.7 0.00 0.00 0.00 49 1182.9
20260502050133 6 39 8.0 11.3 0.00 0.00 0.00 50 1183.1
20260502045629 7 27 6.4 9.7 0.00 0.00 0.00 50 1182.8
20260502045127 7 17 8.0 9.7 0.00 0.00 0.00 46 1182.9
20260502044623 8 20 8.0 9.7 0.00 0.00 0.00 43 1183.0
20260502044120 8 34 9.7 11.3 0.00 0.00 0.00 39 1182.9
20260502043619 7 23 8.0 9.7 0.00 0.00 0.00 42 1182.9
20260502043115 7 20 6.4 8.0 0.00 0.00 0.00 44 1182.8
20260502042614 6 28 6.4 8.0 0.00 0.00 0.00 48 1183.0
20260502042112 9 7 4.8 4.8 0.00 0.00 0.00 42 1183.0
20260502041609 7 15 3.2 4.8 0.00 0.00 0.00 39 1183.0
20260502041106 8 23 4.8 4.8 0.00 0.00 0.00 42 1182.9
20260502040603 8 11 6.4 8.0 0.00 0.00 0.00 44 1183.0
20260502040100 13 315 8.0 9.7 0.00 0.00 0.00 33 1182.7
20260502035556 12 11 3.2 4.8 0.00 0.00 0.00 31 1182.7
20260502035053 13 148 6.4 8.0 0.00 0.00 0.00 31 1182.5
20260502034551 14 182 3.2 3.2 0.00 0.00 0.00 27 1182.3
20260502034049 15 182 3.2 3.2 0.00 0.00 0.00 27 1182.5
20260502033547 15 183 0.0 1.6 0.00 0.00 0.00 26 1182.5
20260502033044 14 183 0.0 0.0 0.00 0.00 0.00 27 1182.6
20260502032540 13 183 0.0 0.0 0.00 0.00 0.00 27 1182.2
20260502032037 14 183 0.0 0.0 0.00 0.00 0.00 27 1182.2
20260502031535 14 183 0.0 0.0 0.00 0.00 0.00 26 1182.1
20260502031033 15 183 0.0 0.0 0.00 0.00 0.00 26 1182.1
20260502030531 15 183 0.0 0.0 0.00 0.00 0.00 24 1182.0
20260502030029 16 183 0.0 0.0 0.00 0.00 0.00 24 1182.0
20260502025526 16 183 1.6 3.2 0.00 0.00 0.00 23 1181.8
20260502025024 16 183 1.6 3.2 0.00 0.00 0.00 23 1181.8
20260502024521 16 183 3.2 3.2 0.00 0.00 0.00 23 1181.7
20260502024020 16 183 1.6 3.2 0.00 0.00 0.00 23 1181.7
20260502023517 17 183 1.6 3.2 0.00 0.00 0.00 23 1181.8
20260502023014 17 183 3.2 3.2 0.00 0.00 0.00 23 1182.0
20260502022510 17 183 3.2 4.8 0.00 0.00 0.00 23 1181.7
20260502022008 17 183 4.8 4.8 0.00 0.00 0.00 23 1181.6
20260502021505 17 183 6.4 8.0 0.00 0.00 0.00 23 1181.9
20260502021001 18 180 4.8 8.0 0.00 0.00 0.00 23 1181.9
20260502020500 17 176 4.8 4.8 0.00 0.00 0.00 24 1181.8
20260502015956 18 171 3.2 4.8 0.00 0.00 0.00 24 1181.8
20260502015454 18 219 1.6 1.6 0.00 0.00 0.00 26 1181.6
20260502014950 18 220 4.8 8.0 0.00 0.00 0.00 21 1181.8
20260502014447 18 207 4.8 8.0 0.00 0.00 0.00 24 1181.7
20260502013944 19 203 3.2 3.2 0.00 0.00 0.00 25 1181.8
20260502013439 20 129 4.8 4.8 0.00 0.00 0.00 20 1181.7
20260502012936 20 129 0.0 1.6 0.00 0.00 0.00 19 1181.7
20260502012434 20 129 0.0 3.2 0.00 0.00 0.00 19 1181.9
20260502011931 20 129 1.6 4.8 0.00 0.00 0.00 19 1181.8
20260502011427 20 168 3.2 4.8 0.00 0.00 0.00 20 1181.8
20260502010924 20 153 6.4 9.7 0.00 0.00 0.00 19 1181.9
20260502010420 20 198 4.8 9.7 0.00 0.00 0.00 19 1181.7
20260502005917 20 208 4.8 9.7 0.00 0.00 0.00 20 1181.9
20260502005415 20 166 8.0 11.3 0.00 0.00 0.00 19 1181.9
20260502004913 20 192 4.8 4.8 0.00 0.00 0.00 20 1181.9
20260502004409 20 79 1.6 3.2 0.00 0.00 0.00 19 1181.9
20260502003906 20 82 6.4 9.7 0.00 0.00 0.00 20 1181.9
20260502003403 20 225 4.8 4.8 0.00 0.00 0.00 19 1181.8
20260502002859 21 156 1.6 3.2 0.00 0.00 0.00 19 1182.1
20260502002357 20 191 0.0 4.8 0.00 0.00 0.00 19 1182.1
20260502001854 20 150 6.4 11.3 0.00 0.00 0.00 20 1182.2
20260502001351 20 319 3.2 4.8 0.00 0.00 0.00 20 1182.1
20260502000849 20 200 4.8 8.0 0.00 0.00 0.00 19 1182.1
20260502000347 20 198 4.8 8.0 0.00 0.00 0.00 21 1182.0
20260501235843 20 169 6.4 11.3 0.00 0.00 0.00 21 1182.2
20260501235339 20 343 1.6 3.2 0.00 0.00 0.00 20 1181.9
20260501234834 20 116 3.2 4.8 0.00 0.00 0.00 19 1182.3
20260501234331 20 20 4.8 8.0 0.00 0.00 0.00 19 1182.5
20260501233830 20 154 1.6 9.7 0.00 0.00 0.00 19 1182.3
20260501233327 20 122 8.0 8.0 0.00 0.00 0.00 19 1182.2
20260501232822 21 203 3.2 4.8 0.00 0.00 0.00 19 1182.5
20260501232320 20 198 6.4 8.0 0.00 0.00 0.00 19 1182.5
20260501231817 21 254 8.0 9.7 0.00 0.00 0.00 19 1182.6
20260501231315 21 334 4.8 8.0 0.00 0.00 0.00 19 1182.7
20260501230813 21 328 4.8 8.0 0.00 0.00 0.00 18 1182.7
20260501230312 21 269 0.0 4.8 0.00 0.00 0.00 18 1182.7
20260501225809 20 238 8.0 9.7 0.00 0.00 0.00 18 1182.8
20260501225307 20 239 6.4 8.0 0.00 0.00 0.00 18 1182.8
20260501224802 20 212 6.4 12.9 0.00 0.00 0.00 19 1182.8